Location: Brad
(46.1333°N, 22.7833°E)
Time: 04:43:01
(UTC+00:00)

SKYMED 2 - Pass Details

Date: 03 February 2023
Orbit: 621 x 623 km, 97.9° (Epoch: 29 March)

Event Time Altitude Azimuth Distance (km) Brightness Sun altitude
Rises 14:57:24 0° 41° (NE) 2,907 6.4 5.2°
Enters shadow 16:18:18 -35° 7° (N) 8,291 9.1 -7.7°
Maximum altitude 16:38:47 73° 102° (ESE) 653 3.5 -11.1°
